ECMWFNIL_prec_pwat_000.txt.gz
Precipitable_Water
1.26 1.29 1.29 1.29 1.25 1.24 1.22 1.17 1.12 1.05 1.03 1.03 0.99 1.00 0.99 1.01 1.05 1.04 1.03 1.04 1.02 0.97 0.94 0.90 0.86 0.82 0.85 0.89 0.95 0.97 0.98 0.99 1.01 1.04 1.04 1.05 1.05 1.04 1.02 1.01 1.01 0.99
1.24 1.29 1.30 1.28 1.25 1.26 1.25 1.19 1.12 1.06 1.02 1.00 0.99 1.01 1.03 1.06 1.08 1.08 1.04 1.03 1.02 0.96 0.94 0.92 0.86 0.83 0.86 0.91 0.95 0.96 0.96 0.97 0.95 1.02 0.99 0.98 1.00 1.01 0.99 0.98 0.97 1.01
1.25 1.27 1.28 1.22 1.18 1.18 1.20 1.18 1.12 1.09 1.04 1.03 1.05 1.05 1.03 1.07 1.07 1.09 1.07 1.05 1.01 0.97 0.94 0.93 0.88 0.86 0.89 0.91 0.93 0.93 0.93 0.94 0.93 0.99 1.01 1.01 1.03 1.01 1.01 1.03 1.04 1.04
1.29 1.32 1.30 1.26 1.23 1.20 1.21 1.14 1.09 1.07 1.04 1.02 1.03 1.05 1.03 1.03 1.05 1.06 1.06 1.06 1.01 0.94 0.92 0.92 0.89 0.88 0.89 0.90 0.90 0.89 0.90 0.91 0.93 0.96 0.95 0.97 0.99 0.99 0.99 1.01 1.02 1.04
1.29 1.31 1.33 1.31 1.26 1.24 1.21 1.10 1.05 1.05 1.02 0.99 1.02 1.05 1.04 1.02 1.02 1.02 1.02 1.02 1.00 0.92 0.90 0.90 0.90 0.88 0.89 0.89 0.89 0.88 0.90 0.90 0.92 0.91 0.89 0.89 0.94 0.95 0.97 0.99 0.98 1.00
1.29 1.32 1.30 1.25 1.21 1.19 1.14 1.05 1.02 1.02 1.02 1.03 1.03 1.08 1.09 1.10 1.05 1.00 0.99 0.99 1.00 0.95 0.91 0.93 0.93 0.92 0.91 0.89 0.89 0.90 0.92 0.90 0.91 0.93 0.93 0.93 0.96 1.01 1.01 1.01 1.01 1.01
1.24 1.29 1.32 1.32 1.26 1.19 1.11 1.02 1.00 1.01 1.02 1.06 1.11 1.13 1.18 1.18 1.11 1.03 1.03 1.05 1.05 1.02 0.96 0.95 0.95 0.93 0.92 0.89 0.88 0.88 0.91 0.91 0.90 0.90 0.91 0.94 0.97 0.98 1.02 1.03 1.04 1.05
1.22 1.29 1.27 1.25 1.22 1.19 1.09 1.01 1.01 1.02 1.07 1.12 1.11 1.17 1.22 1.21 1.17 1.11 1.10 1.13 1.14 1.08 1.04 1.02 1.00 0.95 0.92 0.92 0.90 0.91 0.90 0.91 0.88 0.89 0.90 0.92 0.95 0.96 1.02 1.08 1.10 1.07
1.24 1.27 1.26 1.20 1.15 1.12 1.09 1.06 1.06 1.05 1.10 1.13 1.16 1.22 1.27 1.24 1.20 1.15 1.15 1.17 1.18 1.14 1.09 1.07 1.02 0.97 0.96 0.94 0.93 0.91 0.88 0.88 0.90 0.91 0.92 0.92 0.95 0.98 1.02 1.07 1.05 0.99
1.18 1.22 1.21 1.19 1.14 1.14 1.15 1.19 1.17 1.10 1.12 1.14 1.18 1.25 1.25 1.24 1.23 1.20 1.19 1.19 1.21 1.16 1.12 1.07 1.01 0.98 0.96 0.94 0.92 0.91 0.90 0.89 0.91 0.93 0.95 0.97 0.99 1.00 1.01 1.00 0.95 0.92
1.26 1.27 1.24 1.24 1.22 1.24 1.20 1.19 1.27 1.19 1.19 1.16 1.19 1.25 1.25 1.23 1.24 1.23 1.21 1.20 1.21 1.15 1.12 1.07 1.01 0.97 0.93 0.92 0.94 0.94 0.93 0.93 0.94 0.95 0.96 0.99 1.01 1.00 0.97 0.95 0.96 0.94
1.29 1.32 1.33 1.32 1.32 1.31 1.28 1.26 1.25 1.20 1.22 1.24 1.26 1.26 1.26 1.25 1.24 1.22 1.19 1.19 1.20 1.16 1.14 1.09 1.03 0.99 0.95 0.95 0.96 0.97 0.98 0.98 0.99 0.99 1.00 1.01 1.00 0.97 0.96 0.99 1.00 1.02
1.37 1.36 1.41 1.40 1.40 1.42 1.36 1.33 1.27 1.26 1.30 1.33 1.35 1.32 1.26 1.25 1.25 1.19 1.17 1.17 1.20 1.19 1.15 1.10 1.05 1.01 1.00 1.00 1.00 1.01 1.02 1.02 1.01 1.01 1.01 1.01 1.00 0.99 1.01 1.04 1.07 1.08
1.48 1.46 1.46 1.52 1.57 1.58 1.46 1.41 1.37 1.28 1.31 1.43 1.48 1.38 1.26 1.24 1.22 1.16 1.14 1.17 1.21 1.20 1.17 1.13 1.07 1.03 1.02 1.03 1.04 1.05 1.07 1.06 1.05 1.02 0.99 0.99 0.99 1.02 1.05 1.07 1.09 1.09
1.52 1.57 1.67 1.66 1.70 1.67 1.75 1.50 1.39 1.33 1.33 1.31 1.49 1.44 1.34 1.26 1.24 1.19 1.16 1.15 1.19 1.19 1.16 1.15 1.09 1.04 1.05 1.06 1.06 1.09 1.12 1.10 1.08 1.02 0.98 0.96 0.99 1.02 1.04 1.06 1.06 1.03
1.64 1.69 1.72 1.73 1.80 1.78 1.75 1.64 1.57 1.51 1.45 1.38 1.49 1.47 1.35 1.30 1.26 1.23 1.20 1.18 1.19 1.19 1.19 1.17 1.10 1.08 1.10 1.13 1.14 1.14 1.15 1.15 1.13 1.07 1.03 1.01 1.01 1.01 1.00 1.00 0.99 1.00
1.67 1.71 1.71 1.81 1.88 1.83 1.70 1.63 1.51 1.42 1.47 1.53 1.52 1.48 1.44 1.37 1.30 1.24 1.21 1.21 1.21 1.19 1.18 1.16 1.13 1.13 1.14 1.16 1.18 1.20 1.21 1.19 1.16 1.12 1.10 1.07 1.02 0.98 0.97 1.01 1.02 1.03
1.56 1.63 1.71 1.86 1.88 1.75 1.73 1.54 1.44 1.39 1.41 1.45 1.53 1.52 1.50 1.49 1.41 1.30 1.18 1.17 1.20 1.22 1.20 1.18 1.17 1.18 1.18 1.19 1.22 1.24 1.25 1.24 1.21 1.17 1.15 1.11 1.06 1.05 1.06 1.06 1.05 1.02
1.51 1.54 1.56 1.79 1.80 1.69 1.67 1.61 1.56 1.45 1.39 1.33 1.36 1.44 1.48 1.50 1.53 1.39 1.14 1.18 1.21 1.21 1.20 1.22 1.22 1.23 1.22 1.22 1.24 1.26 1.27 1.28 1.27 1.25 1.19 1.13 1.10 1.08 1.08 1.10 1.05 0.98
1.48 1.50 1.56 1.73 1.73 1.61 1.54 1.50 1.47 1.38 1.33 1.33 1.33 1.37 1.40 1.41 1.38 1.35 1.30 1.25 1.24 1.26 1.24 1.25 1.25 1.26 1.27 1.28 1.30 1.31 1.31 1.31 1.31 1.29 1.23 1.15 1.10 1.09 1.09 1.09 0.99 0.94
1.57 1.59 1.67 1.70 1.61 1.52 1.40 1.35 1.35 1.33 1.33 1.32 1.35 1.33 1.28 1.28 1.28 1.28 1.33 1.35 1.35 1.31 1.27 1.27 1.28 1.32 1.31 1.31 1.33 1.34 1.35 1.36 1.37 1.34 1.25 1.14 1.09 1.09 1.10 1.05 0.99 0.97
1.55 1.57 1.62 1.62 1.48 1.41 1.34 1.33 1.33 1.32 1.33 1.32 1.28 1.21 1.24 1.30 1.28 1.29 1.23 1.27 1.34 1.35 1.31 1.30 1.32 1.34 1.35 1.35 1.37 1.40 1.41 1.42 1.41 1.35 1.24 1.13 1.08 1.09 1.08 1.03 1.00 0.96
1.51 1.52 1.49 1.41 1.42 1.38 1.33 1.33 1.38 1.35 1.29 1.25 1.14 1.14 1.19 1.24 1.23 1.19 1.26 1.35 1.43 1.44 1.39 1.35 1.34 1.39 1.42 1.42 1.43 1.47 1.49 1.46 1.41 1.33 1.22 1.13 1.09 1.09 1.05 1.02 1.01 1.00
1.41 1.38 1.31 1.33 1.31 1.32 1.37 1.42 1.43 1.39 1.31 1.24 1.15 1.12 1.14 1.22 1.23 1.24 1.31 1.40 1.46 1.47 1.48 1.44 1.41 1.41 1.43 1.43 1.47 1.46 1.46 1.43 1.39 1.29 1.18 1.11 1.08 1.08 1.06 1.03 1.02 1.00
1.26 1.23 1.26 1.29 1.26 1.24 1.26 1.28 1.27 1.29 1.21 1.14 1.14 1.16 1.16 1.18 1.21 1.24 1.29 1.41 1.51 1.51 1.47 1.42 1.40 1.39 1.39 1.43 1.45 1.44 1.43 1.41 1.34 1.23 1.10 1.06 1.04 1.03 1.04 1.02 0.99 0.99
1.21 1.20 1.20 1.17 1.16 1.24 1.19 1.18 1.20 1.14 1.13 1.21 1.22 1.22 1.22 1.24 1.24 1.25 1.28 1.38 1.49 1.53 1.38 1.33 1.34 1.31 1.33 1.39 1.41 1.40 1.40 1.36 1.25 1.11 1.02 1.01 1.01 0.99 0.95 0.95 0.95 0.96

ECMWFNIL_prec_pwat_003.txt.gz
Precipitable_Water
1.40 1.38 1.38 1.38 1.37 1.37 1.35 1.35 1.36 1.34 1.32 1.28 1.18 1.13 1.08 1.08 1.10 1.07 1.05 1.06 1.08 1.10 1.09 1.05 1.00 0.94 0.91 0.90 0.92 0.93 0.96 1.00 1.05 1.09 1.09 1.07 1.06 1.05 1.03 1.02 1.02 1.00
1.40 1.38 1.38 1.36 1.35 1.37 1.38 1.40 1.39 1.37 1.35 1.32 1.27 1.23 1.19 1.13 1.09 1.06 1.04 1.03 1.06 1.07 1.11 1.08 1.03 0.97 0.92 0.90 0.92 0.94 0.98 1.01 1.01 1.11 1.06 1.05 1.06 1.06 1.03 1.03 1.03 1.05
1.40 1.33 1.31 1.28 1.28 1.31 1.35 1.41 1.43 1.41 1.35 1.29 1.28 1.27 1.23 1.20 1.16 1.17 1.15 1.10 1.06 1.06 1.07 1.06 1.03 1.00 0.94 0.91 0.92 0.93 0.96 1.00 1.00 1.08 1.07 1.05 1.10 1.07 1.07 1.08 1.08 1.07
1.40 1.36 1.33 1.29 1.27 1.28 1.35 1.42 1.46 1.44 1.38 1.27 1.20 1.20 1.18 1.16 1.17 1.19 1.22 1.22 1.16 1.10 1.07 1.05 1.03 1.02 0.97 0.93 0.92 0.92 0.93 0.94 0.98 1.02 1.01 1.04 1.07 1.05 1.05 1.05 1.04 1.03
1.37 1.35 1.33 1.31 1.30 1.33 1.40 1.43 1.41 1.37 1.32 1.24 1.19 1.16 1.15 1.16 1.17 1.19 1.22 1.25 1.23 1.17 1.13 1.08 1.08 1.05 1.02 0.96 0.94 0.91 0.92 0.91 0.95 0.97 0.95 0.94 0.99 1.01 1.01 1.01 0.98 0.98
1.32 1.31 1.28 1.25 1.25 1.30 1.38 1.45 1.45 1.39 1.33 1.25 1.19 1.19 1.19 1.21 1.22 1.23 1.24 1.25 1.25 1.23 1.18 1.11 1.09 1.07 1.03 0.96 0.96 0.94 0.94 0.91 0.94 1.00 0.97 0.95 0.97 1.03 1.03 1.01 1.00 0.98
1.26 1.22 1.21 1.25 1.27 1.34 1.41 1.52 1.52 1.48 1.42 1.33 1.24 1.19 1.21 1.23 1.24 1.23 1.25 1.27 1.27 1.24 1.20 1.15 1.08 1.07 1.05 1.02 1.00 0.97 0.97 0.94 0.95 0.98 0.95 0.95 0.97 0.97 1.01 1.01 1.00 1.00
1.21 1.21 1.19 1.22 1.28 1.39 1.53 1.66 1.64 1.56 1.49 1.36 1.21 1.24 1.33 1.31 1.30 1.27 1.27 1.29 1.24 1.20 1.19 1.18 1.14 1.11 1.10 1.06 1.03 0.99 0.96 0.97 0.94 0.94 0.93 0.93 0.96 0.96 0.98 1.01 1.03 1.02
1.34 1.29 1.28 1.31 1.37 1.45 1.55 1.60 1.55 1.53 1.54 1.34 1.28 1.25 1.31 1.29 1.27 1.28 1.31 1.30 1.23 1.18 1.19 1.20 1.21 1.20 1.17 1.10 1.07 1.02 0.96 0.96 0.97 0.95 0.94 0.95 0.98 0.99 0.99 1.03 1.02 1.00
1.35 1.32 1.31 1.33 1.34 1.39 1.43 1.48 1.52 1.55 1.51 1.36 1.27 1.33 1.28 1.26 1.30 1.32 1.33 1.30 1.24 1.21 1.20 1.21 1.23 1.23 1.19 1.14 1.09 1.04 0.98 0.94 0.94 0.95 0.97 0.99 0.99 0.98 0.99 1.01 0.99 0.96
1.37 1.27 1.23 1.23 1.23 1.27 1.34 1.44 1.49 1.47 1.44 1.36 1.24 1.33 1.44 1.44 1.43 1.42 1.36 1.34 1.29 1.23 1.20 1.21 1.20 1.21 1.17 1.12 1.08 1.06 1.01 0.96 0.96 0.99 1.01 1.03 1.02 1.00 0.99 0.98 0.96 0.92
1.36 1.24 1.19 1.28 1.33 1.30 1.31 1.39 1.40 1.43 1.41 1.37 1.30 1.28 1.37 1.38 1.43 1.45 1.40 1.35 1.34 1.28 1.24 1.21 1.19 1.17 1.16 1.13 1.09 1.06 1.03 1.02 1.02 1.02 1.03 1.03 1.03 1.02 1.00 0.99 0.93 0.91
1.50 1.39 1.30 1.20 1.20 1.34 1.40 1.42 1.45 1.48 1.48 1.39 1.28 1.33 1.33 1.35 1.46 1.45 1.44 1.44 1.42 1.36 1.28 1.23 1.17 1.17 1.18 1.16 1.13 1.09 1.07 1.07 1.06 1.05 1.04 1.04 1.03 1.02 1.01 1.01 1.00 0.99
1.61 1.66 1.38 1.18 1.20 1.35 1.49 1.47 1.43 1.45 1.54 1.38 1.35 1.34 1.35 1.37 1.46 1.46 1.44 1.46 1.47 1.45 1.38 1.31 1.23 1.18 1.19 1.19 1.17 1.14 1.12 1.12 1.11 1.08 1.07 1.08 1.06 1.04 1.03 1.03 1.05 1.07
1.62 1.63 1.64 1.45 1.25 1.25 1.32 1.46 1.54 1.59 1.67 1.52 1.38 1.34 1.32 1.34 1.44 1.45 1.42 1.44 1.47 1.47 1.42 1.36 1.28 1.21 1.19 1.17 1.15 1.14 1.15 1.16 1.15 1.14 1.14 1.14 1.11 1.09 1.08 1.08 1.09 1.10
1.58 1.63 1.65 1.64 1.52 1.30 1.28 1.35 1.41 1.48 1.60 1.45 1.35 1.34 1.33 1.41 1.50 1.44 1.39 1.42 1.42 1.43 1.41 1.37 1.31 1.27 1.22 1.20 1.19 1.17 1.19 1.21 1.21 1.21 1.22 1.21 1.18 1.15 1.14 1.14 1.13 1.11
1.62 1.66 1.68 1.65 1.62 1.56 1.40 1.32 1.39 1.48 1.52 1.51 1.51 1.49 1.45 1.54 1.57 1.42 1.38 1.42 1.39 1.37 1.37 1.37 1.33 1.31 1.30 1.27 1.23 1.21 1.25 1.27 1.26 1.26 1.28 1.28 1.26 1.22 1.19 1.18 1.18 1.19
1.58 1.61 1.64 1.68 1.72 1.72 1.71 1.62 1.51 1.46 1.53 1.57 1.60 1.59 1.53 1.51 1.55 1.52 1.48 1.50 1.41 1.38 1.37 1.37 1.37 1.38 1.36 1.34 1.30 1.28 1.29 1.31 1.31 1.29 1.29 1.30 1.31 1.29 1.28 1.27 1.26 1.25
1.59 1.64 1.71 1.75 1.82 1.84 1.82 1.78 1.62 1.47 1.50 1.52 1.55 1.57 1.52 1.49 1.52 1.58 1.57 1.56 1.43 1.34 1.36 1.40 1.39 1.38 1.40 1.40 1.37 1.35 1.33 1.33 1.33 1.33 1.32 1.33 1.34 1.35 1.34 1.34 1.33 1.31
1.64 1.67 1.69 1.73 1.68 1.60 1.66 1.59 1.61 1.51 1.51 1.56 1.56 1.54 1.52 1.51 1.57 1.55 1.53 1.54 1.44 1.36 1.36 1.36 1.31 1.32 1.35 1.41 1.43 1.41 1.40 1.41 1.42 1.41 1.40 1.40 1.40 1.42 1.42 1.41 1.40 1.39
1.54 1.53 1.52 1.52 1.61 1.66 1.61 1.55 1.54 1.56 1.50 1.49 1.46 1.48 1.49 1.49 1.49 1.49 1.44 1.47 1.48 1.43 1.29 1.25 1.30 1.36 1.44 1.52 1.51 1.48 1.47 1.47 1.46 1.43 1.41 1.42 1.45 1.47 1.48 1.45 1.43 1.42
1.41 1.41 1.45 1.48 1.50 1.54 1.51 1.45 1.39 1.33 1.32 1.36 1.38 1.42 1.46 1.42 1.39 1.44 1.50 1.51 1.51 1.35 1.22 1.22 1.34 1.41 1.49 1.52 1.51 1.47 1.47 1.46 1.40 1.37 1.36 1.38 1.41 1.43 1.43 1.43 1.42 1.40
1.34 1.33 1.36 1.40 1.43 1.42 1.38 1.31 1.27 1.30 1.33 1.37 1.34 1.40 1.40 1.34 1.35 1.42 1.47 1.48 1.37 1.27 1.22 1.26 1.34 1.43 1.51 1.52 1.47 1.42 1.39 1.38 1.35 1.31 1.30 1.30 1.33 1.39 1.42 1.43 1.42 1.39
1.35 1.34 1.33 1.37 1.40 1.38 1.32 1.29 1.27 1.27 1.27 1.31 1.27 1.28 1.28 1.33 1.38 1.40 1.38 1.31 1.19 1.20 1.25 1.24 1.24 1.35 1.45 1.46 1.40 1.37 1.37 1.35 1.34 1.30 1.27 1.27 1.32 1.37 1.40 1.39 1.39 1.34
1.40 1.43 1.43 1.43 1.39 1.33 1.26 1.20 1.18 1.19 1.22 1.22 1.21 1.22 1.23 1.28 1.30 1.28 1.25 1.19 1.19 1.25 1.26 1.22 1.22 1.28 1.34 1.38 1.40 1.37 1.32 1.27 1.23 1.22 1.23 1.26 1.28 1.30 1.35 1.37 1.35 1.28
1.40 1.43 1.45 1.41 1.35 1.28 1.25 1.20 1.18 1.19 1.19 1.17 1.16 1.17 1.19 1.22 1.23 1.22 1.18 1.15 1.19 1.23 1.26 1.22 1.21 1.27 1.31 1.29 1.28 1.25 1.21 1.18 1.17 1.13 1.13 1.18 1.24 1.26 1.26 1.28 1.25 1.20

ECMWFNIL_prec_pwat_006.txt.gz
Precipitable_Water
1.43 1.46 1.46 1.44 1.43 1.45 1.49 1.48 1.48 1.48 1.49 1.47 1.45 1.49 1.45 1.43 1.41 1.38 1.36 1.38 1.32 1.20 1.19 1.17 1.13 1.10 1.09 1.09 1.06 1.00 0.99 0.98 1.01 1.04 1.07 1.06 1.05 1.05 1.05 1.05 1.05 1.04
1.43 1.48 1.48 1.47 1.48 1.51 1.53 1.55 1.54 1.50 1.45 1.46 1.47 1.53 1.54 1.49 1.45 1.41 1.38 1.33 1.29 1.25 1.28 1.26 1.24 1.20 1.17 1.14 1.09 1.02 1.01 1.04 1.02 1.07 1.03 1.09 1.12 1.10 1.06 1.10 1.08 1.11
1.42 1.46 1.46 1.44 1.45 1.46 1.49 1.53 1.52 1.50 1.47 1.49 1.55 1.58 1.55 1.53 1.47 1.43 1.38 1.33 1.28 1.29 1.33 1.34 1.32 1.27 1.23 1.19 1.17 1.10 1.05 1.05 1.03 1.08 1.08 1.09 1.16 1.16 1.17 1.13 1.12 1.13
1.43 1.48 1.46 1.49 1.49 1.45 1.50 1.49 1.50 1.49 1.49 1.50 1.56 1.61 1.61 1.55 1.47 1.40 1.33 1.29 1.29 1.30 1.35 1.37 1.36 1.35 1.30 1.25 1.21 1.15 1.10 1.06 1.07 1.09 1.07 1.10 1.12 1.12 1.12 1.15 1.13 1.09
1.41 1.46 1.52 1.56 1.57 1.53 1.58 1.55 1.51 1.49 1.46 1.53 1.62 1.64 1.57 1.51 1.44 1.40 1.33 1.29 1.28 1.33 1.36 1.38 1.38 1.36 1.36 1.31 1.26 1.19 1.15 1.10 1.09 1.07 1.04 1.02 1.05 1.05 1.04 1.06 1.06 1.06
1.42 1.50 1.55 1.58 1.54 1.51 1.53 1.54 1.46 1.41 1.43 1.54 1.60 1.63 1.55 1.48 1.42 1.37 1.33 1.31 1.34 1.35 1.41 1.44 1.40 1.38 1.39 1.37 1.33 1.27 1.20 1.14 1.13 1.12 1.07 1.02 1.02 1.06 1.07 1.08 1.08 1.05
1.39 1.46 1.50 1.57 1.49 1.49 1.46 1.43 1.39 1.38 1.44 1.54 1.61 1.58 1.53 1.43 1.36 1.33 1.36 1.36 1.37 1.45 1.46 1.45 1.43 1.39 1.39 1.36 1.32 1.29 1.26 1.18 1.13 1.13 1.11 1.07 1.06 1.04 1.07 1.07 1.06 1.05
1.47 1.50 1.51 1.46 1.43 1.47 1.44 1.41 1.36 1.34 1.43 1.53 1.55 1.59 1.52 1.41 1.32 1.30 1.33 1.37 1.43 1.46 1.45 1.45 1.43 1.38 1.35 1.35 1.29 1.25 1.25 1.26 1.20 1.15 1.10 1.08 1.07 1.04 1.06 1.08 1.06 1.06
1.44 1.41 1.41 1.39 1.38 1.43 1.42 1.41 1.37 1.34 1.41 1.47 1.56 1.59 1.53 1.38 1.30 1.26 1.29 1.37 1.41 1.49 1.50 1.47 1.45 1.42 1.38 1.33 1.30 1.30 1.27 1.24 1.22 1.19 1.15 1.12 1.09 1.06 1.07 1.12 1.09 1.07
1.38 1.42 1.36 1.34 1.33 1.35 1.39 1.41 1.37 1.32 1.34 1.45 1.58 1.60 1.49 1.39 1.32 1.36 1.33 1.40 1.41 1.47 1.50 1.49 1.46 1.43 1.40 1.37 1.34 1.33 1.29 1.24 1.19 1.17 1.19 1.19 1.12 1.07 1.05 1.04 1.04 1.05
1.34 1.33 1.29 1.31 1.35 1.37 1.38 1.45 1.41 1.36 1.37 1.47 1.51 1.48 1.47 1.37 1.32 1.32 1.37 1.37 1.35 1.40 1.47 1.49 1.48 1.46 1.42 1.38 1.37 1.35 1.31 1.27 1.24 1.22 1.20 1.17 1.13 1.10 1.07 1.06 1.05 1.06
1.36 1.33 1.30 1.28 1.30 1.39 1.44 1.44 1.43 1.47 1.42 1.53 1.55 1.45 1.49 1.49 1.34 1.30 1.26 1.30 1.33 1.32 1.38 1.44 1.46 1.45 1.43 1.40 1.36 1.34 1.32 1.28 1.27 1.27 1.22 1.17 1.16 1.14 1.13 1.14 1.13 1.12
1.42 1.40 1.38 1.36 1.43 1.55 1.58 1.44 1.29 1.38 1.49 1.57 1.65 1.58 1.46 1.36 1.30 1.17 1.21 1.32 1.34 1.29 1.30 1.36 1.40 1.42 1.44 1.45 1.37 1.30 1.28 1.28 1.28 1.29 1.26 1.22 1.19 1.18 1.20 1.22 1.21 1.18
1.47 1.52 1.61 1.74 1.78 1.68 1.53 1.49 1.42 1.39 1.55 1.57 1.61 1.52 1.36 1.23 1.15 1.11 1.19 1.29 1.33 1.38 1.37 1.36 1.40 1.45 1.46 1.47 1.42 1.34 1.31 1.30 1.31 1.30 1.28 1.27 1.27 1.25 1.27 1.28 1.28 1.24
1.66 1.74 1.87 1.80 1.72 1.68 1.63 1.46 1.38 1.40 1.50 1.52 1.47 1.34 1.30 1.26 1.17 1.09 1.11 1.19 1.27 1.34 1.34 1.34 1.37 1.39 1.42 1.42 1.37 1.32 1.32 1.31 1.33 1.33 1.32 1.30 1.29 1.31 1.33 1.35 1.36 1.34
1.76 1.83 1.81 1.69 1.72 1.73 1.80 1.63 1.45 1.29 1.17 1.14 1.17 1.21 1.25 1.30 1.29 1.18 1.09 1.11 1.19 1.28 1.34 1.32 1.30 1.35 1.37 1.34 1.30 1.30 1.33 1.34 1.35 1.33 1.31 1.29 1.29 1.32 1.35 1.41 1.43 1.42
1.70 1.70 1.61 1.59 1.59 1.62 1.68 1.71 1.54 1.34 1.20 1.15 1.18 1.20 1.19 1.23 1.25 1.22 1.15 1.14 1.18 1.25 1.29 1.27 1.25 1.29 1.33 1.34 1.30 1.30 1.32 1.32 1.32 1.33 1.33 1.31 1.31 1.34 1.36 1.38 1.37 1.42
1.64 1.61 1.53 1.56 1.59 1.61 1.66 1.64 1.55 1.46 1.34 1.23 1.17 1.15 1.17 1.22 1.21 1.21 1.21 1.17 1.19 1.23 1.28 1.28 1.23 1.24 1.32 1.36 1.32 1.31 1.32 1.34 1.36 1.34 1.34 1.36 1.32 1.29 1.31 1.36 1.41 1.45
1.66 1.61 1.56 1.56 1.60 1.66 1.65 1.69 1.63 1.50 1.39 1.30 1.24 1.24 1.25 1.23 1.22 1.23 1.24 1.25 1.22 1.23 1.29 1.31 1.24 1.27 1.33 1.36 1.35 1.35 1.36 1.39 1.40 1.38 1.38 1.37 1.34 1.35 1.38 1.38 1.43 1.47
1.68 1.63 1.59 1.60 1.64 1.65 1.64 1.59 1.49 1.46 1.45 1.41 1.36 1.32 1.26 1.22 1.24 1.25 1.27 1.27 1.25 1.29 1.35 1.38 1.34 1.35 1.37 1.37 1.39 1.40 1.40 1.38 1.38 1.38 1.39 1.39 1.37 1.35 1.37 1.41 1.44 1.46
1.68 1.65 1.62 1.61 1.56 1.51 1.43 1.38 1.40 1.44 1.42 1.41 1.36 1.31 1.29 1.27 1.28 1.31 1.28 1.27 1.30 1.38 1.46 1.45 1.40 1.43 1.44 1.44 1.46 1.43 1.35 1.29 1.31 1.36 1.39 1.40 1.39 1.40 1.43 1.44 1.45 1.44
1.44 1.43 1.42 1.42 1.39 1.35 1.34 1.34 1.37 1.38 1.38 1.43 1.42 1.41 1.40 1.40 1.40 1.39 1.33 1.27 1.37 1.45 1.48 1.48 1.48 1.53 1.51 1.51 1.48 1.37 1.26 1.25 1.29 1.34 1.39 1.40 1.41 1.46 1.48 1.49 1.45 1.40
1.34 1.33 1.34 1.34 1.34 1.33 1.32 1.34 1.37 1.42 1.47 1.52 1.49 1.50 1.47 1.45 1.43 1.40 1.38 1.35 1.40 1.43 1.45 1.44 1.48 1.51 1.49 1.48 1.41 1.31 1.25 1.23 1.29 1.33 1.35 1.38 1.41 1.44 1.44 1.43 1.42 1.41
1.30 1.31 1.30 1.32 1.34 1.33 1.35 1.39 1.45 1.50 1.51 1.56 1.50 1.48 1.44 1.42 1.43 1.43 1.43 1.46 1.49 1.47 1.46 1.44 1.43 1.48 1.50 1.40 1.32 1.26 1.20 1.23 1.27 1.30 1.37 1.41 1.39 1.38 1.38 1.37 1.36 1.35
1.29 1.30 1.30 1.30 1.33 1.37 1.41 1.44 1.48 1.50 1.53 1.55 1.53 1.50 1.46 1.47 1.46 1.43 1.44 1.46 1.47 1.49 1.50 1.47 1.47 1.50 1.43 1.33 1.27 1.18 1.19 1.24 1.27 1.30 1.32 1.37 1.34 1.32 1.33 1.30 1.29 1.29
1.28 1.29 1.30 1.31 1.33 1.39 1.44 1.47 1.51 1.52 1.53 1.51 1.49 1.46 1.43 1.43 1.42 1.39 1.36 1.37 1.42 1.42 1.44 1.42 1.39 1.44 1.41 1.27 1.19 1.15 1.15 1.21 1.28 1.25 1.20 1.20 1.22 1.15 1.15 1.18 1.20 1.23

ECMWFNIL_prec_pwat_009.txt.gz
Precipitable_Water
1.35 1.34 1.38 1.40 1.41 1.45 1.49 1.50 1.52 1.50 1.49 1.49 1.47 1.50 1.52 1.56 1.54 1.44 1.45 1.47 1.47 1.40 1.34 1.32 1.29 1.28 1.25 1.25 1.25 1.21 1.23 1.21 1.13 1.12 1.08 1.07 1.06 1.06 1.06 1.05 1.07 1.09
1.33 1.35 1.39 1.43 1.45 1.49 1.54 1.58 1.58 1.55 1.55 1.54 1.53 1.60 1.65 1.65 1.64 1.53 1.46 1.45 1.45 1.41 1.37 1.36 1.35 1.30 1.29 1.30 1.31 1.26 1.24 1.25 1.18 1.20 1.12 1.06 1.11 1.15 1.14 1.15 1.13 1.13
1.38 1.37 1.37 1.38 1.43 1.48 1.53 1.57 1.60 1.61 1.58 1.60 1.60 1.66 1.66 1.69 1.64 1.57 1.48 1.43 1.40 1.37 1.35 1.37 1.38 1.33 1.32 1.35 1.39 1.34 1.29 1.28 1.26 1.30 1.25 1.17 1.19 1.16 1.18 1.18 1.18 1.17
1.41 1.40 1.38 1.38 1.45 1.53 1.56 1.57 1.60 1.65 1.66 1.64 1.64 1.65 1.65 1.68 1.66 1.56 1.47 1.41 1.35 1.34 1.36 1.34 1.34 1.37 1.35 1.37 1.41 1.40 1.40 1.36 1.36 1.34 1.29 1.27 1.24 1.21 1.17 1.14 1.11 1.08
1.40 1.40 1.42 1.42 1.43 1.52 1.61 1.59 1.60 1.66 1.65 1.68 1.71 1.71 1.70 1.69 1.65 1.59 1.49 1.40 1.37 1.33 1.36 1.37 1.36 1.41 1.41 1.39 1.44 1.41 1.42 1.41 1.39 1.36 1.32 1.29 1.29 1.24 1.21 1.15 1.06 1.01
1.41 1.43 1.46 1.46 1.43 1.44 1.54 1.62 1.67 1.70 1.70 1.71 1.73 1.73 1.73 1.72 1.64 1.56 1.50 1.44 1.38 1.36 1.38 1.40 1.40 1.39 1.44 1.48 1.50 1.48 1.47 1.42 1.44 1.42 1.37 1.33 1.30 1.30 1.24 1.20 1.13 1.07
1.30 1.38 1.44 1.50 1.44 1.46 1.54 1.64 1.68 1.71 1.70 1.71 1.77 1.71 1.66 1.64 1.63 1.58 1.54 1.46 1.41 1.37 1.37 1.36 1.39 1.38 1.42 1.50 1.51 1.50 1.49 1.47 1.44 1.41 1.37 1.36 1.34 1.29 1.23 1.19 1.16 1.10
1.31 1.38 1.45 1.49 1.51 1.54 1.57 1.63 1.66 1.66 1.67 1.66 1.66 1.67 1.67 1.62 1.59 1.57 1.58 1.51 1.39 1.36 1.31 1.35 1.37 1.41 1.44 1.44 1.39 1.39 1.43 1.47 1.45 1.39 1.30 1.29 1.30 1.28 1.26 1.22 1.21 1.17
1.35 1.39 1.43 1.48 1.51 1.56 1.58 1.58 1.71 1.71 1.68 1.62 1.57 1.57 1.60 1.59 1.56 1.53 1.49 1.42 1.30 1.27 1.32 1.35 1.41 1.41 1.44 1.42 1.37 1.36 1.33 1.36 1.42 1.42 1.38 1.32 1.30 1.29 1.28 1.29 1.23 1.21
1.32 1.40 1.47 1.52 1.52 1.55 1.49 1.53 1.69 1.75 1.69 1.53 1.43 1.50 1.51 1.51 1.53 1.44 1.43 1.44 1.28 1.16 1.21 1.27 1.33 1.39 1.38 1.36 1.37 1.35 1.32 1.31 1.36 1.36 1.35 1.31 1.26 1.23 1.28 1.29 1.26 1.25
1.30 1.39 1.45 1.57 1.55 1.43 1.46 1.55 1.61 1.68 1.64 1.54 1.42 1.44 1.47 1.45 1.49 1.44 1.41 1.42 1.26 1.13 1.13 1.17 1.23 1.27 1.27 1.28 1.30 1.32 1.29 1.29 1.36 1.36 1.32 1.26 1.23 1.23 1.28 1.29 1.28 1.27
1.32 1.41 1.48 1.51 1.40 1.37 1.43 1.46 1.57 1.58 1.53 1.47 1.38 1.32 1.35 1.30 1.31 1.32 1.31 1.32 1.23 1.13 1.15 1.16 1.16 1.18 1.20 1.21 1.25 1.28 1.24 1.25 1.32 1.36 1.34 1.27 1.23 1.23 1.26 1.31 1.31 1.32
1.49 1.53 1.53 1.46 1.38 1.41 1.42 1.39 1.42 1.44 1.33 1.25 1.31 1.27 1.19 1.15 1.21 1.30 1.37 1.40 1.27 1.19 1.14 1.12 1.14 1.16 1.15 1.16 1.20 1.24 1.25 1.24 1.28 1.31 1.30 1.26 1.24 1.24 1.27 1.29 1.28 1.30
1.67 1.65 1.53 1.45 1.42 1.41 1.34 1.30 1.38 1.39 1.37 1.28 1.26 1.22 1.15 1.17 1.20 1.19 1.26 1.32 1.25 1.16 1.14 1.14 1.14 1.14 1.13 1.16 1.19 1.24 1.26 1.25 1.27 1.31 1.28 1.24 1.20 1.22 1.26 1.28 1.30 1.33
1.74 1.68 1.56 1.45 1.43 1.43 1.36 1.33 1.32 1.33 1.30 1.26 1.21 1.19 1.17 1.14 1.16 1.18 1.15 1.16 1.20 1.19 1.17 1.15 1.12 1.11 1.14 1.16 1.19 1.25 1.31 1.29 1.28 1.29 1.29 1.25 1.25 1.26 1.27 1.30 1.33 1.37
1.73 1.65 1.64 1.61 1.51 1.43 1.38 1.38 1.36 1.30 1.23 1.17 1.19 1.24 1.22 1.20 1.20 1.21 1.19 1.14 1.17 1.23 1.22 1.19 1.17 1.18 1.16 1.18 1.23 1.29 1.31 1.32 1.30 1.29 1.29 1.26 1.25 1.25 1.25 1.28 1.26 1.31
1.70 1.67 1.66 1.65 1.61 1.57 1.53 1.49 1.43 1.36 1.29 1.25 1.24 1.29 1.28 1.23 1.23 1.22 1.21 1.22 1.22 1.24 1.25 1.28 1.25 1.21 1.19 1.20 1.23 1.28 1.33 1.32 1.31 1.33 1.30 1.28 1.27 1.27 1.25 1.23 1.21 1.24
1.65 1.63 1.61 1.61 1.62 1.61 1.58 1.56 1.55 1.52 1.49 1.46 1.43 1.39 1.38 1.37 1.27 1.20 1.21 1.22 1.24 1.30 1.33 1.32 1.29 1.25 1.22 1.23 1.23 1.26 1.31 1.34 1.38 1.38 1.34 1.31 1.30 1.29 1.28 1.24 1.23 1.24
1.62 1.62 1.61 1.59 1.58 1.60 1.63 1.63 1.63 1.63 1.63 1.61 1.56 1.56 1.52 1.42 1.31 1.22 1.20 1.21 1.24 1.28 1.28 1.30 1.32 1.33 1.29 1.27 1.24 1.25 1.29 1.34 1.42 1.47 1.40 1.35 1.34 1.33 1.31 1.30 1.29 1.27
1.59 1.56 1.55 1.57 1.63 1.65 1.65 1.67 1.70 1.70 1.71 1.70 1.66 1.61 1.51 1.41 1.34 1.26 1.24 1.25 1.28 1.31 1.30 1.33 1.37 1.41 1.37 1.30 1.28 1.28 1.31 1.39 1.43 1.46 1.46 1.37 1.35 1.37 1.38 1.35 1.32 1.31
1.55 1.54 1.56 1.62 1.67 1.70 1.73 1.73 1.71 1.69 1.68 1.67 1.60 1.53 1.46 1.40 1.36 1.30 1.28 1.30 1.32 1.36 1.36 1.37 1.39 1.44 1.41 1.36 1.32 1.30 1.34 1.42 1.45 1.47 1.43 1.39 1.39 1.41 1.42 1.37 1.33 1.31
1.55 1.58 1.62 1.66 1.68 1.68 1.64 1.61 1.59 1.56 1.53 1.53 1.50 1.46 1.46 1.45 1.44 1.40 1.36 1.37 1.41 1.44 1.43 1.42 1.44 1.45 1.41 1.38 1.34 1.37 1.40 1.43 1.45 1.45 1.41 1.40 1.38 1.37 1.34 1.35 1.39 1.39
1.60 1.59 1.59 1.55 1.52 1.46 1.42 1.42 1.43 1.45 1.47 1.50 1.45 1.45 1.42 1.42 1.45 1.48 1.51 1.51 1.51 1.50 1.50 1.48 1.45 1.48 1.49 1.49 1.45 1.43 1.44 1.46 1.45 1.43 1.42 1.38 1.33 1.29 1.35 1.46 1.46 1.46
1.51 1.47 1.45 1.43 1.42 1.37 1.35 1.39 1.42 1.46 1.46 1.48 1.43 1.43 1.42 1.44 1.47 1.50 1.52 1.54 1.54 1.54 1.53 1.52 1.48 1.49 1.53 1.54 1.50 1.45 1.45 1.44 1.41 1.38 1.37 1.33 1.29 1.40 1.52 1.48 1.38 1.36
1.45 1.40 1.40 1.37 1.34 1.34 1.36 1.38 1.40 1.44 1.50 1.52 1.50 1.50 1.47 1.48 1.50 1.49 1.52 1.55 1.56 1.53 1.53 1.48 1.46 1.54 1.57 1.56 1.50 1.46 1.46 1.48 1.44 1.37 1.33 1.27 1.19 1.34 1.45 1.40 1.32 1.33
1.40 1.39 1.38 1.35 1.34 1.38 1.43 1.46 1.51 1.51 1.51 1.49 1.50 1.51 1.51 1.54 1.55 1.54 1.52 1.52 1.53 1.52 1.51 1.46 1.44 1.46 1.50 1.50 1.45 1.40 1.41 1.46 1.47 1.33 1.22 1.17 1.22 1.38 1.38 1.26 1.25 1.27

ECMWFNIL_prec_pwat_012.txt.gz
Precipitable_Water
1.47 1.53 1.51 1.44 1.44 1.42 1.38 1.34 1.34 1.34 1.37 1.41 1.39 1.36 1.34 1.40 1.44 1.46 1.50 1.49 1.42 1.38 1.32 1.24 1.19 1.25 1.31 1.30 1.27 1.32 1.37 1.31 1.37 1.38 1.32 1.34 1.31 1.27 1.28 1.29 1.22 1.17
1.41 1.47 1.48 1.47 1.45 1.45 1.45 1.41 1.39 1.39 1.42 1.47 1.46 1.48 1.49 1.46 1.50 1.50 1.55 1.46 1.37 1.31 1.27 1.23 1.23 1.24 1.28 1.27 1.27 1.25 1.31 1.32 1.32 1.40 1.41 1.39 1.43 1.43 1.41 1.38 1.31 1.30
1.40 1.41 1.41 1.38 1.39 1.41 1.43 1.45 1.46 1.47 1.46 1.49 1.53 1.55 1.53 1.53 1.54 1.57 1.52 1.46 1.39 1.35 1.33 1.28 1.27 1.26 1.27 1.27 1.27 1.26 1.24 1.27 1.27 1.33 1.34 1.33 1.37 1.38 1.42 1.43 1.44 1.41
1.37 1.38 1.37 1.38 1.39 1.39 1.42 1.44 1.49 1.53 1.54 1.51 1.51 1.57 1.57 1.58 1.61 1.56 1.53 1.49 1.45 1.42 1.42 1.34 1.28 1.27 1.25 1.26 1.30 1.27 1.26 1.27 1.30 1.37 1.37 1.33 1.32 1.37 1.37 1.40 1.38 1.38
1.32 1.34 1.35 1.38 1.40 1.39 1.39 1.40 1.44 1.49 1.52 1.55 1.57 1.59 1.60 1.60 1.60 1.57 1.54 1.53 1.49 1.45 1.44 1.36 1.31 1.27 1.23 1.21 1.28 1.26 1.25 1.29 1.34 1.38 1.38 1.33 1.35 1.32 1.33 1.32 1.29 1.26
1.32 1.32 1.34 1.36 1.38 1.35 1.33 1.36 1.42 1.48 1.51 1.56 1.56 1.62 1.64 1.63 1.60 1.59 1.57 1.53 1.50 1.47 1.46 1.42 1.31 1.26 1.20 1.14 1.16 1.22 1.23 1.27 1.30 1.32 1.30 1.27 1.26 1.28 1.30 1.28 1.26 1.21
1.26 1.32 1.33 1.37 1.33 1.31 1.29 1.34 1.44 1.52 1.55 1.57 1.61 1.61 1.63 1.61 1.60 1.58 1.55 1.53 1.50 1.49 1.46 1.41 1.31 1.22 1.20 1.15 1.11 1.11 1.18 1.22 1.26 1.27 1.22 1.19 1.18 1.21 1.22 1.26 1.26 1.24
1.25 1.31 1.34 1.33 1.28 1.28 1.31 1.35 1.43 1.56 1.60 1.61 1.58 1.60 1.61 1.59 1.57 1.56 1.54 1.53 1.49 1.45 1.42 1.38 1.34 1.25 1.21 1.19 1.14 1.11 1.10 1.16 1.17 1.22 1.21 1.19 1.20 1.17 1.17 1.15 1.15 1.13
1.29 1.29 1.28 1.26 1.23 1.27 1.30 1.33 1.42 1.52 1.59 1.56 1.58 1.58 1.59 1.55 1.51 1.50 1.49 1.46 1.42 1.40 1.37 1.34 1.32 1.26 1.22 1.19 1.16 1.14 1.12 1.13 1.14 1.16 1.17 1.17 1.16 1.17 1.18 1.21 1.18 1.16
1.29 1.30 1.26 1.23 1.22 1.25 1.22 1.31 1.41 1.43 1.51 1.53 1.51 1.50 1.47 1.49 1.50 1.47 1.44 1.41 1.35 1.34 1.33 1.30 1.29 1.27 1.22 1.18 1.16 1.17 1.16 1.15 1.16 1.14 1.15 1.15 1.14 1.15 1.15 1.16 1.15 1.14
1.23 1.28 1.28 1.27 1.25 1.22 1.18 1.27 1.39 1.44 1.39 1.36 1.36 1.35 1.38 1.42 1.43 1.44 1.39 1.35 1.30 1.28 1.27 1.26 1.29 1.27 1.21 1.18 1.19 1.23 1.23 1.21 1.18 1.18 1.21 1.23 1.23 1.24 1.23 1.22 1.19 1.17
1.22 1.20 1.26 1.29 1.26 1.22 1.21 1.24 1.33 1.37 1.34 1.30 1.30 1.29 1.34 1.40 1.40 1.42 1.39 1.32 1.29 1.26 1.27 1.25 1.28 1.27 1.24 1.21 1.21 1.23 1.25 1.23 1.20 1.19 1.23 1.27 1.28 1.27 1.26 1.25 1.23 1.22
1.19 1.19 1.25 1.29 1.26 1.24 1.28 1.27 1.28 1.33 1.32 1.30 1.30 1.31 1.33 1.35 1.39 1.41 1.44 1.39 1.32 1.27 1.24 1.26 1.27 1.26 1.25 1.23 1.21 1.21 1.21 1.19 1.18 1.22 1.25 1.26 1.27 1.28 1.26 1.29 1.28 1.27
1.32 1.28 1.28 1.28 1.30 1.29 1.28 1.28 1.26 1.29 1.35 1.36 1.34 1.32 1.33 1.33 1.35 1.40 1.47 1.46 1.39 1.31 1.27 1.28 1.26 1.24 1.25 1.23 1.19 1.17 1.16 1.16 1.19 1.27 1.29 1.29 1.30 1.30 1.31 1.32 1.34 1.32
1.40 1.41 1.37 1.33 1.34 1.35 1.31 1.29 1.27 1.26 1.33 1.41 1.40 1.37 1.36 1.31 1.34 1.44 1.50 1.48 1.45 1.39 1.35 1.31 1.25 1.22 1.25 1.23 1.17 1.13 1.17 1.21 1.28 1.33 1.34 1.32 1.31 1.32 1.34 1.35 1.35 1.33
1.44 1.48 1.46 1.44 1.41 1.38 1.37 1.35 1.34 1.31 1.32 1.36 1.40 1.42 1.41 1.36 1.35 1.46 1.49 1.47 1.44 1.43 1.43 1.38 1.31 1.31 1.28 1.24 1.19 1.13 1.15 1.24 1.34 1.37 1.38 1.36 1.32 1.32 1.34 1.35 1.34 1.32
1.44 1.49 1.53 1.50 1.46 1.43 1.44 1.44 1.43 1.41 1.38 1.37 1.39 1.41 1.41 1.42 1.46 1.48 1.51 1.50 1.48 1.44 1.44 1.45 1.40 1.35 1.29 1.25 1.19 1.14 1.16 1.25 1.33 1.38 1.41 1.40 1.36 1.33 1.32 1.33 1.31 1.32
1.43 1.51 1.56 1.58 1.57 1.55 1.53 1.54 1.54 1.51 1.49 1.49 1.48 1.45 1.45 1.50 1.53 1.53 1.56 1.56 1.54 1.52 1.47 1.41 1.35 1.35 1.30 1.25 1.21 1.15 1.20 1.29 1.37 1.42 1.43 1.39 1.36 1.35 1.37 1.36 1.31 1.30
1.49 1.55 1.58 1.62 1.62 1.62 1.63 1.63 1.62 1.59 1.57 1.55 1.52 1.57 1.60 1.56 1.57 1.61 1.62 1.63 1.58 1.52 1.41 1.35 1.33 1.33 1.29 1.27 1.25 1.20 1.23 1.34 1.44 1.46 1.46 1.40 1.36 1.38 1.39 1.38 1.36 1.33
1.59 1.62 1.61 1.63 1.67 1.70 1.70 1.68 1.66 1.64 1.65 1.65 1.67 1.67 1.65 1.64 1.66 1.66 1.67 1.64 1.56 1.46 1.38 1.35 1.34 1.32 1.31 1.32 1.32 1.26 1.26 1.35 1.45 1.49 1.45 1.39 1.38 1.42 1.43 1.42 1.40 1.36
1.63 1.64 1.62 1.66 1.70 1.72 1.71 1.71 1.71 1.71 1.68 1.68 1.69 1.69 1.67 1.68 1.71 1.69 1.66 1.59 1.50 1.43 1.40 1.38 1.39 1.40 1.40 1.41 1.39 1.35 1.33 1.34 1.40 1.44 1.39 1.38 1.43 1.48 1.49 1.46 1.44 1.46
1.62 1.62 1.66 1.71 1.72 1.73 1.75 1.75 1.73 1.71 1.67 1.70 1.72 1.76 1.80 1.78 1.71 1.64 1.55 1.51 1.50 1.48 1.44 1.42 1.46 1.48 1.49 1.49 1.48 1.43 1.39 1.38 1.40 1.39 1.33 1.39 1.46 1.48 1.48 1.47 1.50 1.51
1.63 1.63 1.66 1.67 1.70 1.74 1.74 1.72 1.69 1.67 1.69 1.78 1.76 1.70 1.60 1.52 1.53 1.55 1.56 1.54 1.50 1.49 1.46 1.47 1.51 1.54 1.53 1.52 1.51 1.50 1.46 1.44 1.41 1.37 1.37 1.40 1.41 1.43 1.43 1.44 1.50 1.51
1.64 1.65 1.64 1.67 1.72 1.71 1.67 1.67 1.69 1.71 1.72 1.69 1.56 1.50 1.49 1.53 1.57 1.58 1.61 1.61 1.58 1.55 1.56 1.54 1.55 1.59 1.57 1.54 1.53 1.51 1.48 1.42 1.39 1.37 1.38 1.38 1.41 1.46 1.51 1.48 1.45 1.42
1.68 1.69 1.70 1.73 1.70 1.67 1.65 1.62 1.60 1.58 1.60 1.61 1.58 1.57 1.58 1.64 1.66 1.64 1.62 1.58 1.53 1.49 1.50 1.51 1.52 1.56 1.54 1.52 1.50 1.47 1.44 1.44 1.43 1.41 1.37 1.38 1.41 1.43 1.43 1.39 1.37 1.37
1.73 1.73 1.75 1.71 1.64 1.63 1.57 1.53 1.55 1.53 1.51 1.53 1.57 1.59 1.61 1.61 1.59 1.55 1.49 1.47 1.48 1.47 1.47 1.46 1.43 1.47 1.46 1.43 1.43 1.44 1.46 1.49 1.47 1.39 1.35 1.36 1.39 1.37 1.33 1.34 1.34 1.30

ECMWFNIL_prec_pwat_015.txt.gz
Precipitable_Water
1.25 1.28 1.31 1.34 1.37 1.40 1.42 1.36 1.35 1.31 1.30 1.29 1.25 1.27 1.30 1.36 1.43 1.43 1.43 1.46 1.47 1.44 1.41 1.44 1.43 1.32 1.21 1.16 1.18 1.22 1.26 1.25 1.23 1.19 1.15 1.13 1.08 1.15 1.15 1.18 1.25 1.27
1.26 1.29 1.34 1.38 1.40 1.46 1.47 1.39 1.35 1.33 1.30 1.29 1.28 1.33 1.41 1.45 1.50 1.51 1.49 1.44 1.46 1.39 1.43 1.45 1.40 1.28 1.14 1.10 1.10 1.15 1.18 1.19 1.15 1.17 1.10 1.10 1.07 1.07 1.08 1.11 1.17 1.26
1.27 1.27 1.30 1.31 1.35 1.43 1.45 1.42 1.38 1.37 1.32 1.30 1.33 1.38 1.45 1.54 1.56 1.57 1.56 1.49 1.44 1.42 1.44 1.41 1.32 1.18 1.06 1.07 1.07 1.10 1.13 1.11 1.11 1.13 1.13 1.12 1.11 1.04 1.09 1.16 1.16 1.16
1.28 1.29 1.30 1.33 1.39 1.42 1.46 1.43 1.39 1.38 1.36 1.36 1.34 1.41 1.49 1.57 1.58 1.57 1.57 1.54 1.46 1.44 1.44 1.40 1.26 1.14 1.07 1.07 1.07 1.05 1.09 1.10 1.09 1.15 1.15 1.17 1.15 1.15 1.15 1.17 1.20 1.20
1.29 1.30 1.32 1.35 1.40 1.44 1.44 1.40 1.36 1.36 1.35 1.36 1.41 1.46 1.51 1.54 1.56 1.58 1.57 1.53 1.48 1.44 1.45 1.41 1.34 1.21 1.11 1.06 1.05 1.04 1.06 1.08 1.11 1.14 1.15 1.17 1.20 1.18 1.18 1.19 1.19 1.17
1.32 1.31 1.31 1.34 1.39 1.39 1.35 1.34 1.34 1.33 1.34 1.40 1.44 1.49 1.52 1.54 1.55 1.53 1.51 1.46 1.44 1.43 1.43 1.44 1.40 1.32 1.18 1.10 1.05 1.04 1.06 1.06 1.10 1.12 1.12 1.15 1.18 1.19 1.20 1.20 1.19 1.13
1.28 1.28 1.28 1.35 1.37 1.35 1.31 1.32 1.33 1.32 1.35 1.44 1.50 1.51 1.54 1.54 1.51 1.47 1.45 1.44 1.41 1.39 1.38 1.38 1.38 1.34 1.28 1.17 1.09 1.03 1.07 1.07 1.07 1.08 1.10 1.15 1.18 1.19 1.21 1.20 1.17 1.12
1.26 1.26 1.28 1.33 1.31 1.30 1.27 1.29 1.30 1.30 1.38 1.45 1.46 1.52 1.55 1.51 1.46 1.46 1.44 1.41 1.38 1.36 1.35 1.35 1.35 1.33 1.31 1.21 1.11 1.06 1.05 1.10 1.07 1.08 1.11 1.15 1.18 1.17 1.17 1.19 1.19 1.15
1.23 1.23 1.25 1.27 1.25 1.26 1.23 1.24 1.27 1.31 1.40 1.42 1.43 1.47 1.49 1.49 1.47 1.46 1.41 1.39 1.36 1.36 1.34 1.34 1.33 1.32 1.32 1.23 1.12 1.06 1.04 1.07 1.10 1.12 1.13 1.15 1.15 1.15 1.17 1.19 1.18 1.18
1.21 1.23 1.24 1.23 1.21 1.21 1.18 1.19 1.25 1.34 1.41 1.42 1.42 1.41 1.42 1.47 1.48 1.46 1.43 1.39 1.36 1.36 1.36 1.35 1.34 1.34 1.32 1.27 1.15 1.06 1.02 1.03 1.08 1.14 1.17 1.18 1.17 1.16 1.16 1.18 1.19 1.19
1.20 1.23 1.21 1.19 1.16 1.16 1.15 1.19 1.24 1.32 1.38 1.36 1.36 1.37 1.40 1.42 1.45 1.48 1.44 1.40 1.36 1.36 1.37 1.38 1.37 1.36 1.33 1.28 1.21 1.13 1.05 1.03 1.05 1.08 1.14 1.19 1.20 1.21 1.21 1.21 1.22 1.23
1.22 1.22 1.19 1.16 1.13 1.12 1.13 1.18 1.24 1.30 1.32 1.31 1.31 1.30 1.35 1.39 1.41 1.44 1.43 1.39 1.38 1.39 1.40 1.40 1.41 1.39 1.38 1.34 1.28 1.19 1.10 1.07 1.08 1.09 1.12 1.17 1.21 1.23 1.25 1.27 1.27 1.28
1.21 1.19 1.18 1.16 1.12 1.09 1.12 1.17 1.22 1.26 1.26 1.25 1.28 1.27 1.28 1.31 1.37 1.39 1.43 1.42 1.40 1.41 1.40 1.40 1.42 1.43 1.42 1.41 1.37 1.28 1.17 1.10 1.11 1.11 1.12 1.15 1.20 1.24 1.26 1.28 1.30 1.31
1.22 1.19 1.17 1.15 1.11 1.10 1.12 1.15 1.18 1.22 1.23 1.27 1.29 1.25 1.22 1.24 1.29 1.33 1.39 1.40 1.39 1.38 1.41 1.43 1.44 1.45 1.46 1.45 1.43 1.37 1.26 1.16 1.14 1.14 1.14 1.16 1.20 1.23 1.27 1.30 1.34 1.38
1.26 1.22 1.19 1.15 1.11 1.10 1.10 1.12 1.14 1.16 1.21 1.25 1.27 1.26 1.25 1.25 1.29 1.33 1.37 1.39 1.40 1.41 1.44 1.46 1.46 1.48 1.49 1.47 1.44 1.42 1.34 1.21 1.16 1.17 1.18 1.19 1.21 1.25 1.31 1.37 1.41 1.43
1.27 1.22 1.19 1.17 1.13 1.09 1.08 1.09 1.11 1.13 1.17 1.21 1.24 1.28 1.31 1.32 1.33 1.36 1.37 1.38 1.39 1.44 1.47 1.48 1.49 1.52 1.53 1.52 1.50 1.46 1.37 1.27 1.21 1.20 1.21 1.22 1.21 1.21 1.28 1.36 1.39 1.42
1.30 1.23 1.21 1.17 1.15 1.14 1.14 1.14 1.15 1.17 1.20 1.25 1.30 1.33 1.35 1.37 1.37 1.38 1.40 1.44 1.46 1.47 1.49 1.52 1.54 1.56 1.57 1.56 1.55 1.52 1.43 1.33 1.25 1.21 1.23 1.23 1.22 1.21 1.25 1.32 1.38 1.42
1.34 1.29 1.23 1.20 1.21 1.22 1.24 1.25 1.26 1.29 1.32 1.37 1.41 1.44 1.47 1.48 1.46 1.46 1.49 1.51 1.55 1.57 1.57 1.58 1.59 1.63 1.63 1.62 1.60 1.55 1.48 1.40 1.33 1.26 1.23 1.22 1.24 1.29 1.35 1.39 1.41 1.43
1.37 1.33 1.28 1.26 1.27 1.30 1.33 1.34 1.36 1.39 1.43 1.45 1.47 1.54 1.58 1.56 1.55 1.55 1.55 1.60 1.63 1.62 1.62 1.64 1.65 1.68 1.68 1.67 1.63 1.58 1.53 1.47 1.41 1.33 1.23 1.21 1.28 1.37 1.42 1.44 1.43 1.39
1.39 1.40 1.37 1.36 1.39 1.40 1.42 1.43 1.45 1.47 1.51 1.56 1.59 1.62 1.60 1.59 1.61 1.60 1.63 1.67 1.70 1.69 1.67 1.67 1.68 1.71 1.71 1.69 1.66 1.61 1.56 1.52 1.47 1.38 1.30 1.30 1.35 1.43 1.46 1.45 1.41 1.35
1.38 1.43 1.43 1.47 1.49 1.50 1.51 1.53 1.55 1.59 1.62 1.65 1.66 1.64 1.62 1.61 1.63 1.64 1.69 1.72 1.73 1.73 1.70 1.69 1.73 1.76 1.73 1.70 1.66 1.62 1.59 1.55 1.50 1.41 1.33 1.35 1.43 1.48 1.47 1.44 1.41 1.40
1.38 1.42 1.48 1.52 1.52 1.55 1.56 1.58 1.62 1.65 1.66 1.72 1.72 1.71 1.71 1.70 1.71 1.71 1.69 1.70 1.72 1.72 1.70 1.70 1.74 1.76 1.73 1.71 1.68 1.63 1.60 1.54 1.47 1.39 1.34 1.38 1.48 1.52 1.48 1.45 1.44 1.45
1.39 1.44 1.49 1.53 1.55 1.57 1.59 1.61 1.62 1.66 1.71 1.76 1.70 1.69 1.67 1.67 1.66 1.68 1.72 1.66 1.63 1.65 1.65 1.66 1.67 1.66 1.64 1.63 1.60 1.57 1.52 1.46 1.41 1.36 1.36 1.42 1.46 1.47 1.47 1.48 1.49 1.53
1.37 1.45 1.49 1.54 1.56 1.56 1.61 1.64 1.67 1.72 1.75 1.78 1.71 1.69 1.67 1.67 1.70 1.70 1.66 1.65 1.64 1.63 1.65 1.61 1.56 1.53 1.52 1.52 1.51 1.50 1.47 1.42 1.38 1.32 1.31 1.36 1.39 1.43 1.46 1.45 1.45 1.47
1.42 1.47 1.50 1.53 1.55 1.58 1.63 1.65 1.69 1.74 1.80 1.83 1.79 1.76 1.72 1.73 1.70 1.62 1.63 1.67 1.70 1.69 1.70 1.63 1.53 1.50 1.51 1.51 1.50 1.47 1.42 1.37 1.31 1.27 1.23 1.26 1.32 1.36 1.41 1.43 1.43 1.44
1.48 1.51 1.55 1.57 1.57 1.61 1.67 1.73 1.81 1.83 1.84 1.82 1.81 1.77 1.71 1.64 1.60 1.61 1.60 1.63 1.68 1.68 1.66 1.60 1.51 1.46 1.45 1.44 1.39 1.35 1.33 1.31 1.30 1.24 1.21 1.24 1.29 1.32 1.34 1.37 1.38 1.39

ECMWFNIL_prec_pwat_018.txt.gz
Precipitable_Water
1.25 1.20 1.15 1.14 1.14 1.17 1.21 1.26 1.33 1.36 1.39 1.39 1.34 1.34 1.33 1.38 1.47 1.46 1.45 1.46 1.43 1.40 1.44 1.47 1.46 1.35 1.27 1.22 1.20 1.20 1.19 1.16 1.15 1.11 1.06 1.04 1.01 1.02 1.01 1.02 1.08 1.11
1.28 1.23 1.20 1.19 1.17 1.20 1.24 1.30 1.32 1.34 1.37 1.39 1.38 1.37 1.41 1.43 1.46 1.50 1.47 1.44 1.43 1.41 1.43 1.42 1.40 1.34 1.28 1.24 1.19 1.16 1.15 1.13 1.11 1.15 1.08 1.06 1.04 1.04 1.04 1.05 1.07 1.14
1.32 1.27 1.23 1.17 1.14 1.17 1.23 1.32 1.35 1.37 1.39 1.41 1.41 1.42 1.42 1.46 1.48 1.51 1.50 1.49 1.46 1.42 1.39 1.36 1.36 1.33 1.28 1.23 1.19 1.14 1.10 1.09 1.07 1.09 1.09 1.07 1.03 1.01 1.07 1.09 1.10 1.14
1.31 1.29 1.25 1.21 1.21 1.20 1.27 1.32 1.36 1.39 1.43 1.41 1.41 1.44 1.46 1.48 1.51 1.50 1.51 1.52 1.48 1.40 1.35 1.37 1.35 1.32 1.26 1.20 1.16 1.09 1.06 1.07 1.07 1.08 1.04 1.04 1.03 1.01 1.05 1.12 1.13 1.18
1.27 1.27 1.28 1.26 1.26 1.27 1.31 1.31 1.32 1.37 1.39 1.42 1.43 1.47 1.48 1.49 1.50 1.50 1.50 1.51 1.47 1.38 1.35 1.34 1.34 1.31 1.27 1.21 1.13 1.03 1.03 1.04 1.08 1.08 1.04 1.01 1.05 1.06 1.08 1.11 1.13 1.17
1.29 1.28 1.26 1.24 1.26 1.28 1.28 1.30 1.33 1.36 1.41 1.42 1.43 1.47 1.49 1.52 1.51 1.47 1.44 1.44 1.44 1.39 1.34 1.32 1.29 1.28 1.27 1.23 1.16 1.08 1.04 1.02 1.06 1.08 1.06 1.04 1.07 1.13 1.12 1.11 1.12 1.16
1.24 1.26 1.25 1.27 1.29 1.30 1.27 1.31 1.35 1.37 1.41 1.44 1.48 1.47 1.52 1.53 1.53 1.44 1.40 1.42 1.42 1.38 1.33 1.28 1.26 1.27 1.30 1.26 1.19 1.13 1.10 1.05 1.07 1.08 1.05 1.07 1.08 1.10 1.14 1.14 1.13 1.16
1.24 1.27 1.26 1.28 1.29 1.29 1.26 1.29 1.32 1.36 1.39 1.45 1.45 1.50 1.55 1.54 1.49 1.43 1.41 1.42 1.40 1.37 1.33 1.29 1.28 1.30 1.33 1.29 1.20 1.13 1.11 1.12 1.10 1.08 1.05 1.06 1.08 1.07 1.12 1.15 1.16 1.14
1.24 1.24 1.27 1.27 1.26 1.26 1.24 1.26 1.30 1.36 1.41 1.42 1.45 1.50 1.55 1.50 1.44 1.42 1.40 1.40 1.38 1.35 1.33 1.31 1.31 1.33 1.37 1.33 1.25 1.17 1.12 1.14 1.15 1.10 1.05 1.04 1.04 1.06 1.10 1.15 1.15 1.14
1.22 1.22 1.24 1.24 1.23 1.23 1.20 1.23 1.30 1.35 1.39 1.42 1.45 1.51 1.46 1.45 1.45 1.42 1.39 1.36 1.34 1.34 1.35 1.34 1.35 1.37 1.39 1.39 1.33 1.26 1.20 1.17 1.16 1.13 1.09 1.06 1.05 1.07 1.10 1.14 1.13 1.13
1.25 1.20 1.18 1.18 1.18 1.20 1.19 1.23 1.29 1.33 1.37 1.40 1.47 1.48 1.44 1.43 1.42 1.41 1.38 1.36 1.34 1.34 1.36 1.37 1.38 1.40 1.40 1.41 1.42 1.39 1.31 1.24 1.19 1.16 1.12 1.09 1.08 1.08 1.12 1.15 1.16 1.15
1.30 1.21 1.15 1.13 1.14 1.17 1.19 1.24 1.28 1.30 1.34 1.44 1.49 1.43 1.42 1.42 1.39 1.38 1.36 1.35 1.36 1.38 1.39 1.40 1.42 1.43 1.44 1.44 1.45 1.45 1.41 1.32 1.24 1.19 1.16 1.13 1.11 1.10 1.13 1.17 1.16 1.17
1.34 1.22 1.15 1.11 1.11 1.13 1.19 1.24 1.26 1.26 1.32 1.40 1.44 1.40 1.38 1.37 1.38 1.36 1.37 1.36 1.38 1.40 1.40 1.41 1.43 1.45 1.45 1.46 1.47 1.48 1.45 1.38 1.28 1.20 1.17 1.16 1.15 1.14 1.15 1.18 1.19 1.19
1.38 1.29 1.19 1.12 1.11 1.13 1.18 1.22 1.24 1.25 1.27 1.36 1.39 1.36 1.35 1.34 1.34 1.33 1.37 1.39 1.39 1.40 1.41 1.43 1.43 1.44 1.47 1.48 1.48 1.48 1.46 1.42 1.35 1.24 1.18 1.17 1.18 1.18 1.18 1.18 1.19 1.21
1.42 1.37 1.28 1.18 1.13 1.13 1.15 1.19 1.21 1.22 1.26 1.31 1.32 1.31 1.34 1.35 1.38 1.39 1.38 1.38 1.40 1.40 1.40 1.43 1.43 1.43 1.46 1.47 1.47 1.48 1.49 1.45 1.42 1.33 1.24 1.19 1.18 1.18 1.19 1.19 1.21 1.24
1.43 1.40 1.32 1.23 1.15 1.11 1.12 1.15 1.19 1.22 1.25 1.26 1.25 1.27 1.30 1.36 1.40 1.42 1.41 1.38 1.36 1.37 1.39 1.39 1.40 1.45 1.47 1.48 1.51 1.51 1.52 1.51 1.49 1.43 1.34 1.26 1.20 1.16 1.16 1.18 1.20 1.23
1.42 1.39 1.36 1.27 1.17 1.13 1.14 1.14 1.16 1.20 1.23 1.24 1.25 1.26 1.30 1.34 1.38 1.38 1.38 1.38 1.36 1.35 1.35 1.37 1.40 1.45 1.46 1.48 1.52 1.56 1.58 1.56 1.53 1.49 1.44 1.35 1.25 1.17 1.14 1.15 1.18 1.22
1.37 1.37 1.34 1.29 1.25 1.17 1.14 1.14 1.16 1.19 1.20 1.22 1.23 1.23 1.29 1.34 1.34 1.34 1.35 1.37 1.38 1.39 1.39 1.40 1.44 1.48 1.51 1.54 1.57 1.60 1.61 1.61 1.60 1.55 1.52 1.45 1.34 1.23 1.19 1.18 1.18 1.21
1.39 1.35 1.29 1.28 1.27 1.22 1.20 1.20 1.19 1.18 1.18 1.19 1.19 1.23 1.27 1.28 1.30 1.33 1.35 1.40 1.43 1.43 1.45 1.50 1.53 1.58 1.60 1.61 1.63 1.67 1.69 1.67 1.65 1.62 1.58 1.54 1.45 1.32 1.23 1.22 1.23 1.23
1.40 1.34 1.28 1.25 1.28 1.30 1.29 1.25 1.22 1.18 1.19 1.22 1.23 1.25 1.25 1.27 1.32 1.36 1.41 1.45 1.49 1.51 1.53 1.57 1.62 1.67 1.66 1.68 1.70 1.72 1.72 1.71 1.67 1.66 1.64 1.60 1.54 1.43 1.30 1.25 1.25 1.23
1.42 1.35 1.28 1.27 1.30 1.32 1.33 1.31 1.29 1.28 1.27 1.27 1.27 1.26 1.26 1.29 1.35 1.40 1.47 1.52 1.56 1.59 1.60 1.65 1.71 1.73 1.71 1.73 1.75 1.75 1.74 1.72 1.70 1.68 1.65 1.61 1.56 1.49 1.37 1.29 1.27 1.24
1.42 1.34 1.28 1.28 1.30 1.34 1.35 1.34 1.34 1.32 1.29 1.32 1.33 1.34 1.39 1.44 1.49 1.52 1.52 1.55 1.61 1.66 1.68 1.69 1.74 1.74 1.74 1.76 1.79 1.79 1.76 1.72 1.69 1.65 1.62 1.57 1.51 1.48 1.43 1.38 1.31 1.24
1.42 1.37 1.31 1.28 1.30 1.32 1.34 1.35 1.35 1.35 1.38 1.40 1.36 1.38 1.42 1.48 1.51 1.55 1.61 1.65 1.69 1.72 1.71 1.72 1.71 1.73 1.76 1.79 1.81 1.80 1.74 1.69 1.67 1.63 1.58 1.52 1.48 1.48 1.46 1.41 1.32 1.23
1.41 1.39 1.33 1.31 1.31 1.29 1.31 1.36 1.40 1.43 1.43 1.46 1.41 1.43 1.47 1.54 1.63 1.68 1.72 1.74 1.74 1.74 1.76 1.70 1.68 1.74 1.78 1.81 1.81 1.79 1.75 1.69 1.65 1.57 1.53 1.50 1.48 1.49 1.47 1.41 1.31 1.27
1.41 1.42 1.38 1.35 1.33 1.32 1.36 1.39 1.42 1.46 1.52 1.57 1.55 1.55 1.57 1.67 1.73 1.72 1.75 1.79 1.82 1.82 1.79 1.71 1.72 1.76 1.79 1.79 1.79 1.78 1.75 1.68 1.60 1.55 1.48 1.46 1.45 1.43 1.46 1.41 1.36 1.36
1.44 1.43 1.41 1.39 1.38 1.41 1.44 1.46 1.51 1.55 1.59 1.59 1.60 1.62 1.65 1.71 1.75 1.77 1.76 1.79 1.84 1.82 1.75 1.75 1.74 1.75 1.77 1.77 1.75 1.73 1.69 1.64 1.60 1.51 1.43 1.41 1.43 1.41 1.37 1.37 1.37 1.39